This is the latest recevied weather packets stored in our database for station/object TF3VP-10. If no packets are shown the sender has not sent any weather packets the latest 10 day(s).
| Time | Temp. | Humidity | Pressure | Rain* | Wind** | Luminosity | Snow |
|---|---|---|---|---|---|---|---|
| 1777528248 | 3.33° C | 60% | 1022.4 hPa | 0 mm | - | - | - |
| 1777527348 | 3.33° C | 60% | 1022.4 hPa | 0 mm | - | - | - |
| 1777526447 | 2.78° C | 61% | 1022.4 hPa | 0 mm | - | - | - |
| 1777525549 | 2.78° C | 61% | 1022.4 hPa | 0 mm | - | - | - |
| 1777524647 | 3.33° C | 68% | 1023 hPa | 0 mm | - | - | - |
| 1777523748 | 3.33° C | 68% | 1023 hPa | 0 mm | - | - | - |
| 1777522848 | 3.33° C | 68% | 1023 hPa | 0 mm | - | - | - |
| 1777521948 | 3.33° C | 68% | 1023 hPa | 0 mm | - | - | - |
| 1777521048 | 3.33° C | 68% | 1023 hPa | 0 mm | - | - | - |
| 1777520147 | 3.33° C | 68% | 1023 hPa | 0 mm | - | - | - |
| 1777519248 | 3.89° C | 62% | 1023.5 hPa | 0 mm | - | - | - |
| 1777518347 | 3.89° C | 62% | 1023.5 hPa | 0 mm | - | - | - |
| 1777517448 | 3.89° C | 62% | 1023.5 hPa | 0 mm | - | - | - |
| 1777516548 | 3.89° C | 62% | 1023.5 hPa | 0 mm | - | - | - |
| 1777515648 | 3.89° C | 62% | 1023.5 hPa | 0 mm | - | - | - |
| 1777514747 | 3.89° C | 62% | 1023.5 hPa | 0 mm | - | - | - |
| 1777513847 | 3.33° C | 67% | 1023.9 hPa | 0 mm | - | - | - |
| 1777512947 | 3.33° C | 67% | 1023.9 hPa | 0 mm | - | - | - |
| 1777512048 | 3.33° C | 67% | 1023.9 hPa | 0 mm | - | - | - |
| 1777511147 | 3.33° C | 67% | 1023.9 hPa | 0 mm | - | - | - |
| 1777510248 | 3.33° C | 67% | 1023.9 hPa | 0 mm | - | - | - |
| 1777509347 | 3.33° C | 67% | 1023.9 hPa | 0 mm | - | - | - |
| 1777508451 | 3.89° C | 62% | 1023.8 hPa | 0 mm | - | - | - |
| 1777507548 | 3.89° C | 62% | 1023.8 hPa | 0 mm | - | - | - |
| 1777502148 | 3.89° C | 66% | 1024.4 hPa | 0 mm | - | - | - |
* Rain latest hour (hover to see other rain measurements)
** Current wind speed in m/s (hover to see current wind gust speed)